Regional Weather Roundup
Issued by NWS Wakefield, VA

Home | Current Version | Previous Version | Text Only | Print | Product List | Glossary Off
Versions: 1 2 3 4 5 6 7 8 9 10 11 12 13 14 15 16 17 18 19 20 21 22 23 24 25 26 27 28 29 30 31 32 33 34 35 36 37 38 39 40 41 42 43 44 45 46 47 48 49 50

000
ASUS41 KAKQ 301010
RWRAKQ

REGIONAL WEATHER ROUNDUP
NATIONAL WEATHER SERVICE WAKEFIELD VA
500 AM EST FRI JAN 30 2015

Note: "fair" indicates few or no clouds below 12,000 feet with no
significant weather and/or obstructions to visibility. * = Denotes
station may not report precipitation (e.g., rain,snow,etc.),
thunder or fog.

VAZ042-051-052>054-056-301100-
NORTHERN VIRGINIA

CITY           SKY/WX    TMP DP  RH WIND       PRES   REMARKS
WASH NATIONAL  CLOUDY    42  28  57 NW10      29.93S
DULLES         MOCLDY    37  28  70 NW14      29.93R
FORT BELVOIR   CLOUDY    39  28  63 NW10      29.93S
QUANTICO       CLOUDY    36  27  69 W3        29.94S
FREDERICKSBRG* CLOUDY    40  26  57 NW3       29.92S
STAFFORD*      CLOUDY    37  24  57 CALM      29.96S
WARRENTON      CLOUDY    40  33  75 NW7       29.92R
CULPEPER*      PTCLDY    41  28  60 NW3       29.93S
MANASSAS*      CLOUDY    39  28  65 NW10      29.93R
LEESBURG*      MOCLDY    37  32  81 NW13G18   29.94R
WINCHESTER     CLOUDY    37  25  60 NW16G24   29.95R
FRONT ROYAL*   CLOUDY    36  30  80 NW8G17    29.94R
LURAY*         CLOUDY    41  28  60 W8G25     29.95R
$$

VAZ048-049-060>072-079>083-301100-
CENTRAL AND SOUTH CENTRAL VIRGINIA

CITY           SKY/WX    TMP DP  RH WIND       PRES   REMARKS
RICHMOND       CLOUDY    43  26  51 W6        29.91S
CHESTERFIELD*  CLOUDY    41  19  42 NW6       29.93R
PETERSBURG*    CLOUDY    40  27  59 CALM      29.93S
HANOVER        CLOUDY    40  26  57 NW7       29.94R
TAPPAHANNOCK*  CLOUDY    40  24  52 N3        29.93R
QUINTON*       CLOUDY    40  25  56 CALM      29.92R
CHARLOTTSVILLE CLOUDY    42  24  49 NW7       29.94R
GORDONSVILLE*  CLOUDY    40  27  60 CALM      29.93R
ORANGE*        CLOUDY    37  30  75 W7G20     29.95R
LOUISA*        CLOUDY    39  27  60 NW5       29.92R
BUMPASS*       CLOUDY    38  26  60 CALM      29.92R
FARMVILLE*     MOCLDY    45  29  55 NW5       29.93R
CREWE*         CLOUDY    43  28  55 NW8       29.93R
FORT PICKETT*  CLOUDY    42  28  58 W8        29.92S
CHASE CITY*    PTSUNNY   44  32  63 NW8       29.94S
CLARKSVILLE*   CLOUDY    41  30  65 W3        29.94R
SOUTH HILL*    CLOUDY    41  27  56 W5        29.99S
LAWRENCEVILLE* CLOUDY    42  28  56 W3        29.92S
EMPORIA*       CLOUDY    36  28  75 CALM      29.95R
$$

VAZ088>098-301100-
SOUTHEAST VIRGINIA

CITY           SKY/WX    TMP DP  RH WIND       PRES   REMARKS
NORFOLK        LGT RAIN  45  29  53 SW12G21   29.91S
VIRGINIA BEACH CLOUDY    46  32  58 W13       29.90F
NORFOLK NAVAL  LGT RAIN  47  36  65 W8        29.93R
WEST POINT*    CLOUDY    44  25  47 W7        29.93R
SALUDA*        CLOUDY    38  31  78 CALM      29.91R
NEWPORT NEWS   CLOUDY    43  30  60 W8        29.92S
LANGLEY AFB    LGT RAIN  41  32  70 W12       29.91S
FORT EUSTIS    DRIZZLE   41  31  68 SW2       29.90S
WILLIAMSBURG*    N/A     43  30  61 W6        29.92S
HR EXEC AP*    CLOUDY    43  30  61 W8        29.94S
FRANKLIN*      LGT RAIN  41  31  67 W5        29.93S
WAKEFIELD      CLOUDY    41  27  57 SW7       29.93R
$$

VAZ020-022-025-037-045-301100-
WEST CENTRAL AND SOUTHWEST VIRGINIA

CITY           SKY/WX    TMP DP  RH WIND       PRES   REMARKS
STAUNTON*      CLOUDY    39  22  50 W9        29.97R
WAYNESBORO*    CLOUDY    37  23  56 NW9G17    29.94R
HOT SPRINGS VA LGT SNOW  25  24  98 W21G36    29.84R WCI  10
LYNCHBURG      MOCLDY    39  26  59 NW10      29.99R
DANVILLE       PTCLDY    44  26  49 NW21G30   29.98R
SOUTH BOSTON*  FAIR      44  29  57 NW15G24   29.96R
MARTINSVILLE   MOCLDY    41  26  54 NW12G17   30.04R
ROANOKE        CLOUDY    38  22  52 NW14G22   30.02R
BLACKSBURG     CLOUDY    32  24  73 NW18G24   30.02R WCI  20
DUBLIN*        CLOUDY    34  26  72 NW13G28   30.04R
MARION*        CLOUDY    32  23  70 W26G33    30.06R WCI  18
HILLSVILLE*    CLOUDY    32  25  76 NW17G28   29.99R WCI  21
RICHLANDS*     LGT SNOW  28  25  87 NW9G16    30.09R
WISE*          CLOUDY    30  25  80 NW18G33   30.14R WCI  18
ABINGDON*      CLOUDY    34  27  75 N9        30.13R
$$

MDZ021>025-VAZ099-100-301100-
SOUTHERN MARYLAND AND THE DELMARVA PENINSULA

CITY           SKY/WX    TMP DP  RH WIND       PRES   REMARKS
PATUXENT RIVER CLOUDY    38  28  67 W6        29.91S
BAY BRIDGE APT   N/A     37  28  70 NW10G16   29.92R
LEONARDTOWN    CLOUDY    37  27  65 W3        29.93S
DOVER          NOT AVBL
GEORGETOWN     CLOUDY    39  26  59 W6        29.89S
EASTON         CLOUDY    41  29  63 NW12      29.93F
CAMBRIDGE      CLOUDY    39  27  60 W3        29.91R
SALISBURY      LGT RAIN  41  27  57 W10       29.90S
OCEAN CITY     LGT RAIN  39  27  62 W8        29.89S
WALLOPS ISLAND LGT RAIN  38  32  79 NW10G22   29.92R
ACCOMACK*      RAIN      37  32  81 NW9       29.92R
$$

NCZ012>017-030>032-301100-
NORTH CENTRAL AND EASTERN NORTH CAROLINA

CITY           SKY/WX    TMP DP  RH WIND       PRES   REMARKS
ROANOKE RAPIDS CLOUDY    37  32  81 SW8       29.94S
RALEIGH        LGT RAIN  39  28  64 SW3       29.97R
ELIZABETH CITY CLOUDY    46  36  68 SW9       29.93F
AHOSKIE*       CLOUDY    39  32  76 CALM      29.94S
EDENTON*       CLOUDY    46  38  72 SW6       29.93F
CURRITUCK*     CLOUDY    45  34  65 SW8       29.93S
KILL DEVIL HLS CLOUDY    47  38  72 SW8       29.91F
MANTEO         CLOUDY    45  39  81 S6        29.93F
CAPE HATTERAS  CLOUDY    50  45  83 W10       29.95F
TARBORO*       CLOUDY    43  35  75 W3        29.96S
GOLDSBORO      CLOUDY    44  43  98 CALM      29.94F
WASHINGTON     CLOUDY    45  38  74 SW6       29.95S
GREENVILLE     CLOUDY    45  37  76 SW6       29.97S
NEW BERN       MOCLDY    50  40  68 SW6       29.97S
WILMINGTON     CLOUDY    50  44  80 SW7       29.98F
$$

VAZ048-301100-
ELSEWHERE

CITY           SKY/WX    TMP DP  RH WIND       PRES   REMARKS
HARRISBURG PA  CLOUDY    30  25  81 NW13      29.89S WCI  20
BALTIMORE      CLOUDY    37  27  67 W10       29.90S
ANNAPOLIS      CLOUDY    39  26  59 NW6       29.91R
ANDREWS AFB    CLOUDY    38  27  63 NW10      29.91S
PHILADELPHIA   CLOUDY    34  25  69 W6        29.88S
HENDERSON NC   CLOUDY    38  26  64 CALM      29.95R
GREENSBORO     CLEAR     42  28  57 NW17G24   29.98R
ROCKY MOUNT    CLOUDY    43  34  70 SW8       29.96R
$$

VAZ100-301100-
MARINE

STATION/POSITION TIME  TEMP    WIND        PRES    WAVE   SWELL
                       AIR SEA DIR/SP/G            HT/PER HT/PER
                 (UTC) (F)     (DEG/KT/KT) (MB)    (FT/S) (FT/S)
BRANDYWINE LGT   1000          270/ 13/ 13   N/A
CAPE MAY NJ      1000   37 36              1011.1F
LEWES DE         1000   39 36  270/ 12/ 14 1011.7R
15NM E FENWICK I 1000   40 40              1011.4R   5/ 5
OCEAN-CITY-INLET 1000   40 38  290/  8/ 11 1011.7R
WACHAPREAGUE VA  1000   40 36  260/  5/ 10 1012.5R
THOMAS POINT MD  1000   39 35  300/ 10/ 11 1013.9R
GOOSES REEF MD   1000   39     VRB 10/ 12  1011.7R
COVE POINT MD    1000   40     320/  9/ 11 1012.5S
SOLOMONS ISLAND  1000      37                N/A
BISHOPS HEAD MD  1000   39 34  290/ 10/ 11 1012.6R
PINEY POINT MD   1000          320/  5/  5   N/A
POTOMAC MD       1000   40     320/ 12/ 16 1012.2R
CAMBRIDGE MD     1000   40 35  280/  4/  8 1012.6R
LEWISETTA VA     1000   39 36  300/  7/  8 1013.0S
RAPPAHANNOCK LGT 1000          250/  8/  9 1013.1R
STINGRAY PT      1000   40     290/  8/ 10 1013.1S
YORK RVR RNG VA  1000   42     270/ 11/ 12 1011.8S
YORKTOWN VA      1000   42 40  250/ 10/ 12 1012.2S
JAMESTOWN VA     1000   41     290/  6/  8   N/A
DOMINION TERM VA 1000   43     260/  9/ 11 1012.9F
KIPTOPEKE VA     1000      44  270/ 11/ 13   N/A
CHES BAY BRIDGE  1000   45 40  240/ 15/ 17 1012.1R
CAPE HENRY VA    1000   45     230/ 13/ 17 1011.0F
CHESAPEAKE LGHT  0900   43     230/ 11/ 12 1013.5F
WILLOUBY STN VA  1000   42     250/  9/ 10 1013.1F
S CRANEY ISL VA  1000          250/ 11/ 16 1012.6F
CAPE HENRY BUOY  1000      42                N/A     2/11   2/11
1ST LANDING BUOY 1000   44     250/ 14/ 16 1012.0S
CAPE CHARLES BUO 1000      41                N/A     3/11   2/11
OFFSHORE WE BUOY 1000      43                N/A     3/11   2/11
64NM E OF VA BCH 1000   49 48  240/ 16/ 19 1012.3F   4/ 4   2/11
DUCK PIER NC     1000   45 44  220/ 11/ 13 1012.3F
44100 DUCK FRF   1000      44                N/A     2/11   2/11
44056 DUCK FRF   1000      43                N/A     2/11   2/11
OREGON INLET NC  1000   44 43  210/  7/  8 1013.8F
HATTERAS NC      1000   51 44  240/ 10/ 14 1014.4F



USA.gov is the U.S. government's official web portal to all federal, state and local government web resources and services.